軌道要素
Epoch 2020 Feb. 1.0 TT = JDT 2458880.5
T 2020 Jan. 31.82936 TT Rudenko
q 2.1248386 (2000.0) P Q
n 0.15351486 Peri. 92.34161 -0.98931875 -0.11894672
a 3.4543720 Node 80.83557 +0.07454113 -0.90957576
e 0.3848842 Incl. 4.89624 +0.12526783 -0.39815023
P 6.42
From 678 observations 2013 May 5-2020 June 12, mean residual 0".6.
|